       *** 運用予定について ***
     9月10日(水)から当分の間   アナログ系運用 
  * なお,運用予定は都合により,変更することがありますの,であらかじめご了承
    願います。

 照会先 : lab@jarl.or.jp
  
      ふじ2号(JAS−1b)の運用 

 CWテレメトリの機能に障害が発生しています。詳細は「ふじ2号」の現況をご覧くだ
さい。運用はアナログ系の連続運用とします。 
        当分の間     アナログ系運用

  * なお,運用予定は都合により,変更することがありますの,で
 あらかじめご了承願います。
 照会先 : lab@jarl.or.jp
 最新の情報はテレホンサービス(03−3942−1000)をお聞
きください。  
  
  ふじ2号(JAS−1b)の運用 

 CWテレメトリの機能に障害が発生しています。詳細は「ふじ2号」
の現況をご覧ください。
 運用はアナログ系の連続運用とします。 
     
-----------------------    FO−20(JAS-1b)道要素   ----------------------
  
  ■ 軌道要素1 :出典はFO-29「ふじ3号」に同じ.
  
FO-20
1 20480U 90013C   03267.83348192 -.00000028  00000-0  15700-4 0 05548
2 20480 099.0627 189.8298 0539642 229.6586 125.6185 12.83334848638516

  ■ 軌道要素2 :出典はFO−29「ふじ3号」に同じ.

Satellite: FO-20
Catalog number: 20480
Epoch time:      03267.83348192
Element set:    0554
Inclination:      099.0627 deg
RA of node:       189.8298 deg
Eccentricity:    0.0539642
Arg of perigee:   229.6586 deg
Mean anomaly:     125.6185 deg
Mean motion:   12.83334848 rev/day
Decay rate:       -2.8e-07 rev/day^2
Epoch rev:           63851
Checksum:              348               

--------------------------------------------------------------------
         ■ ふじ2号/FO−20/JAS-1b ■      
            
          「ふじ2号」 現況                          
                                                                     
   JAS-1b(ふじ2号)のCWテレメトリ信号に,1997年10月1
2日12時(JST)の日本上空通過時,3桁の数字が繰り返される
はずが3個の長音の繰り返しとなっているという異常が発見されました。
この不具合は次の通過時からは回復していましたが13日15時20分の
通過時に再び観測されました。現在はA0の送信が続いています。衛
星のアナログ系中継モード動作は異常が無く,正常時のテレメトリ内容
からは衛星の動作に異常は認められません。従って,直ちに衛星の
ミッションに影響することは無いと予想されますので,当面はアナログ系
中継 モードを継続します。衛星は既に打ち上げてから7年8ヶ月を経てお
りますので,今後は監視を強化する予定です。アマチュア各位のレポートを
お待ちします。
 --------------------------------------------------------------------
-- 
  1997年10月14日 00時35分 確認のテレメトリ音 151 KB (A0) 
  1997年10月14日 11時10分 確認のテレメトリ音 216 KB (異常キーイング) 

  以上 JARLのホ−ムページの http://www.jarl.or.jp/Japanese/3_Fuji/new/fuji.
htm

===================== FO-20 ふじ2号 のテレメトリ観測結果 ===================
=

  12月20日(金)13:59(JST)の観測結果ではテレメトリは、
以前観測した単一周波数の
正弦波がドップラー効果で周波数がずれていくのみの状態でした。
                                         
   =============   JAS-2 (ふじ3号)と現在までの情報   ========

  A.電話によるふじ3号の運用情報
      社団法人日本アマチュア連盟によるサービス
           TEL .   03− 3942 − 1000
  B.アマチュア無線FAXサービス
      JARLによるふじ3号の軌道情報(オービットカレンダー)
         FAX No.  03− 3233 −0055
  C.WWWブラウザで情報を簡単に見れる人のためにJAS-1,JAS‐1b,
   JAS‐2(ふじ1号からふじ3号の衛星としての運用されるまでの名前)の
   概要、打ち上げまでの状況、運用中における状況を説明したホームページを
   紹介しておきます.

     社団法人日本アマチュア無線連盟(JARL)のホームページ

         http://www.jarl.or.jp/Japanese/3_Fuji/new/fuji.htm
     http://www.jarl.or.jp/Japanese/3_Fuji/history/history.htm
 
     宇宙開発事業団(NASDA)ホームページ 

      1)「ふじ1号」(JAS−1:FO−12)
         http://spaceboy.nasda.go.jp/lib/satellites/jas/j/jas_01j.html
         http://spaceboy.nasda.go.jp/lib/satellites/jas/g/h_15017.jpg
         http://spaceboy.nasda.go.jp/lib/satellites/jas/e/jas_01e.html
         http://space.nasda.go.jp/db/kaihatu/eisei/eisei_j/jas_1a_j.html#2
         http://spaceboy.nasda.go.jp/note/eisei/j/eis15h_j.html#eis15h_01_j
         http://www.nasda.go.jp/lib/nasda-news/1996/12/resai_j.html
         http://spaceboy.nasda.go.jp/lib/satellites/jas/g/h_15007.jpg
         http://www.nasda.go.jp/press/2002/02/pb_020220_j.html
      2)「ふじ2号」(JAS−1b:FO−20)
         http://spaceboy.nasda.go.jp/lib/satellites/mos/g/h_21018.jpg
         http://spaceboy.nasda.go.jp/lib/satellites/mos/g/h_21019.jpg
         http://spaceboy.nasda.go.jp/note/eisei/j/eis15h_j.html#eis15h_01_j

      3)「ふじ3号」(JAS−2:FO−29)
         http://www.nasda.go.jp/lib/nasda-news/1996/09/h2_j.html
     http://www.nasda.go.jp/pr/services/presskit/h2-f4/p-h23_e.html
         http://space.nasda.go.jp/db/kaihatu/eisei/eisei_j/jas-2j.html
         http://spaceboy.nasda.go.jp/note/eisei/j/eis15i_j.html#eis15i_03_j

   B膤惘宙工学コンソーシアムホームページ
    東京大学・東京工業大学の小型衛星打ち上げ成功に伴い活発な活動が
    始まりました。
    http://www.unisec.jp/

  D.JAMSATによる軌道情報の活用
        JAMSATのホームページまたはjamsat−kepsの軌道要素より
      衛星の軌道情報を得る.
     JAMSATホームページ
               URL    http://www.jamsat.or.jp
       上記ホームページでは各地で行われるアマチュア通信衛星に関する
      ミューティングのお知らせや世界のアマチュア衛星に関する情報が
      満載されています.

 ========================================================================  
     JAMSATのメンバーのご協力によりJH6MME(高山 秀造)が
    執筆・編集を担当しております.ご指摘の意見、疑問やこのようにしたら
    というアイデアがありましたら小さなことでもかまいませんので気軽に下
    記アドレスまでご連絡ください.jamsat−newsからjas2
    infoへの転載をJH4PHW局坂井さんに担当して頂いております.  
                  E-mail : jh6mme@jamsat.or.jp : jh4phw@jamsat.or.jp
 ===============================   END =============================

**************************************
      高山 秀造
E-mail:stakayam@ktmail.ktokai-u.ac.jp
**************************************